Content
SEND FEEDBACK

Daily
Averages
Monthly
Summary
Russia

KORSAKOV, RUSSIA


Home > Europe > Russia
Elevation: 112 feet     Latitude: 46 38N     Longitude: 142 47E

WEATHER
 
SELECT A DAY
Number of Records: 209,057;   Date Range: 7/1/96 - 12/19/14
 
SHARE

PRINT THIS DATA

[ ← Previous Day ]
WEATHER ALMANAC - JANUARY 31, 2013
[ Next Day → ]
[ °C ]   °F
Weather ElementAverageHighLow
Temperature25 °F33.8 °F (2:00 pm)15.8 °F (9:30 am)
Dewpoint18.5 °F22 °F (11:00 pm)14 °F (9:30 am)
Humidity77.2 %100 % (2:00 am)39 % (5:00 pm)
Barometer30.39 in30.44 in (11:00 am)30.36 in (2:30 pm)
Wind Speed2.3 mph6.7 mph (5:30 pm)
Weather ElementAverage
Visibility7.1 mi
Wind DirectionSE (133 °)

Weather ElementTotal
Precipitation---
Heating Degree Days40.2 (Base 65)
Averaged from 44 records on January 31, 2013
WEATHER CONDITIONS BREAKOUT
WIND DIRECTION BREAKOUT
WEATHER BY HOUR - JANUARY 31, 2013
[ °C ]   °F
Local TimeTemperatureDewpointHumidityBarometerVisibilityWind DirectionWind SpeedGust SpeedPrecipitationEventsConditions
1:00 AM19.4 °F17.6 °F93 %30.42 in6.2 miSW (230°)2.2 mphScattered Clouds
2:00 AM17.6 °F17.6 °F100 %30.42 in6.2 miCalmScattered Clouds
3:00 AM19.4 °F17.6 °F93 %30.42 in6.2 miSE (130°)2.2 mphScattered Clouds
4:00 AM19.4 °F17.6 °F93 %30.42 in6.2 miESE (120°)2.2 mphScattered Clouds
5:00 AM21.2 °F19.4 °F93 %30.42 in6.2 miESE (110°)2.2 mphScattered Clouds
5:00 AM21.0 °F20.0 °F97 %30.43 in2.0 miCalmMostly Cloudy
6:00 AM21.2 °F19.4 °F93 %30.42 in6.2 miCalmScattered Clouds
6:30 AM21.2 °F19.4 °F93 %30.42 in6.2 miCalmScattered Clouds
7:00 AM21.2 °F19.4 °F93 %30.42 in6.2 miCalmScattered Clouds
7:30 AM21.2 °F19.4 °F93 %30.42 in6.2 miCalmScattered Clouds
8:00 AM21.2 °F19.4 °F93 %30.42 in6.2 miCalmScattered Clouds
8:30 AM21.2 °F19.4 °F93 %30.42 in6.2 miCalmScattered Clouds
9:00 AM19.4 °F17.6 °F93 %30.42 in6.2 miCalmMostly Cloudy
9:30 AM15.8 °F14.0 °F93 %30.42 in6.2 miCalmScattered Clouds
10:00 AM17.6 °F15.8 °F93 %30.42 in5.0 miCalmScattered Clouds
10:30 AM19.4 °F17.6 °F93 %30.42 in5.0 miNW (310°)4.5 mphPartly Cloudy
11:00 AM21.2 °F17.6 °F86 %30.42 in5.0 miNNW (340°)4.5 mphPartly Cloudy
11:00 AM20.0 °F17.0 °F81 %30.44 in31.0 miNorth (10°)2.2 mph
11:30 AM21.2 °F15.8 °F80 %30.42 in6.2 miNorth (360°)4.5 mph
12:00 PM23.0 °F15.8 °F74 %30.42 in6.2 miNorth (10°)2.2 mph
12:30 PM24.8 °F17.6 °F74 %30.42 in6.2 miNorth (360°)2.2 mph
1:00 PM26.6 °F15.8 °F64 %30.42 in6.2 miNorth (360°)4.5 mph
1:30 PM30.2 °F17.6 °F60 %30.39 in6.2 miCalm
2:00 PM33.8 °F17.6 °F52 %30.39 in6.2 miSSW (210°)2.2 mph
2:30 PM30.2 °F15.8 °F55 %30.36 in6.2 miCalm
3:00 PM30.2 °F15.8 °F55 %30.36 in6.2 miCalm
3:30 PM32.0 °F17.6 °F55 %30.36 in6.2 miCalmPartly Cloudy
4:00 PM30.2 °F17.6 °F60 %30.36 in6.2 miCalmPartly Cloudy
4:30 PM30.2 °F17.6 °F60 %30.36 in6.2 miCalmPartly Cloudy
5:00 PM31.0 °F15.0 °F39 %30.38 in31.0 miWest (280°)4.5 mphMostly Cloudy
5:00 PM28.4 °F19.4 °F69 %30.36 in6.2 miWest (280°)4.5 mphPartly Cloudy
5:30 PM28.4 °F19.4 °F69 %30.36 in6.2 miWest (270°)6.7 mphScattered Clouds
6:00 PM28.4 °F19.4 °F69 %30.36 in6.2 miWest (280°)4.5 mphMostly Cloudy
6:30 PM28.4 °F19.4 °F69 %30.36 in6.2 miWest (270°)4.5 mphMostly Cloudy
7:00 PM28.4 °F19.4 °F69 %30.36 in6.2 miWest (260°)4.5 mphMostly Cloudy
7:30 PM28.4 °F21.2 °F74 %30.36 in6.2 miWest (260°)2.2 mphMostly Cloudy
8:00 PM28.4 °F19.4 °F69 %30.36 in6.2 miCalmMostly Cloudy
8:30 PM28.4 °F21.2 °F74 %30.36 in6.2 miSW (230°)4.5 mphMostly Cloudy
9:00 PM28.4 °F21.2 °F74 %30.36 in6.2 miSSW (210°)4.5 mphScattered Clouds
9:30 PM28.4 °F21.2 °F74 %30.36 in6.2 miSouth (190°)2.2 mphScattered Clouds
10:00 PM28.4 °F21.2 °F74 %30.36 in6.2 miSSE (160°)4.5 mphScattered Clouds
10:30 PM28.4 °F21.2 °F74 %30.36 in6.2 miSouth (170°)4.5 mphScattered Clouds
11:00 PM28.0 °F22.0 °F69 %30.37 in2.0 miSouth (170°)6.7 mphOvercast
11:00 PM28.4 °F21.2 °F74 %30.36 in6.2 miSE (140°)6.7 mphScattered Clouds
Hourly data recorded from UHSS, located miles away from Korsakov, Russia







STORIES FROM OUR PARTNERS